Retour au catalogue

VANGUARD R/B

ActifUNKNOWN
NORAD 16·ROCKET BODY·🇺🇸 United States

Lancé Mar 17, 1958 depuis Cape Canaveral Space Force Station

Loading…

Prochains Passages (prochaines 24 heures)

TLE

FraisSource: Space-Track

Époque: Sep 5, 2026, 11:54 UTC

1 00016U 58002A   26248.49598234  .00000133  00000-0  21439-3 0  9997
2 00016  34.2603  72.8951 2016184  99.6554 283.6145 10.49619164697359

Suivez VANGUARD R/B en temps réel avec AllMySat

Download on the App Store